World > North America > United States > Illinois > Barnett Township  

Barnett Township, IL Hourly Weather Updates

Feedback E-mail the Weather

Quick Clicks

Barnett Township, IL Weather Maps

°F °C°F °C
Barnett Township Weather Map
UTC Time: 6/22/2024, 05:17
Your Time:

Barnett Township, IL Regional Weather

Expires:202406220600;;447214
ASUS43 KLOT 220510
RWRIL 

ILLINOIS REGIONAL WEATHER ROUNDUP
NATIONAL WEATHER SERVICE CHICAGO/ROMEOVILLE IL
1200 AM CDT SAT JUN 22 2024

NOTE: "FAIR" INDICATES FEW OR NO CLOUDS BELOW 12,000 FEET WITH NO
SIGNIFICANT WEATHER AND/OR OBSTRUCTIONS TO VISIBILITY.

* THESE STATIONS ARE NOT UNDER NWS QUALITY CONTROL. THEY ALSO MAY NOT
  REPORT WEATHER SUCH AS PRECIPITATION OR FOG.


ILZ028>032-037-038-041>044-048-051>054-059>061-220600-
CENTRAL ILLINOIS
  
CITY           SKY/WX    TMP DP  RH WIND       PRES   REMARKS
PONTIAC        PTCLDY    77  65  68 S5        30.07S TC  25           
BLOOMINGTON    CLEAR     75  66  73 SW6       30.09S TC  24           
DECATUR        CLEAR     77  66  68 S6        30.09S TC  25           
PEORIA         CLEAR     80  69  69 SW5       30.06R HX  83  TC  27   
LACON*         CLEAR     79  66  64 MISG      30.04F HX  81  TC  26   
LINCOLN*       CLEAR     78  67  68 S6        30.07S HX  80  TC  26   
SPRINGFIELD    CLEAR     79  66  64 SW7       30.07S HX  81  TC  26   
TAYLORVILLE    CLEAR     75  65  71 W6        30.09S TC  24           
$$


SKY/WX - Weather  TMP - Temperature  DP - Dew Point  RH - Humidity
WIND - Wind Direction/Speed PRES - Barometric Pressure VSB - Visibility
WCI - Wind Chill Index E13G22 Wind - East Wind 13 mph/Gusts of 22 mph

Trending Headlines

Trending Entertainment Headlines

Barnett Township Radar Loop

Use the map search tool if you want to place a location marker on the radar map...

Barnett Township Quick Facts

National Two Day Weather Forecast


E-mail the Barnett Township Weather Forecast

Voice your opinion or tell us about page issues...